KLM1605 EGNJ-EHAM

Flight info

Callsign KLM1605
Flight time 0h 36m
Altitude 29000
Route OTBED Y70 SUPEL L90 DOLAS L603 LAMSO
Aircraft E190/M-SDE3GILORVW/S

Departure

Time 2026-05-06 17:53
Airport Humberside Airport (EGNJ)

Arrival

Time 2026-05-06 18:29
Airport Amsterdam Airport Schiphol (EHAM)
Time Latitude Longitude Altitude Speed Heading
2026-05-06 17:25 53.58301 -0.34957 81 ft 0 kts 25°
2026-05-06 17:43 53.58297 -0.34960 81 ft 3 kts 25°
2026-05-06 17:43 53.58273 -0.34979 85 ft 4 kts 25°
2026-05-06 17:43 53.58249 -0.34998 87 ft 4 kts 25°
2026-05-06 17:43 53.58230 -0.35013 86 ft 4 kts 32°
2026-05-06 17:44 53.58209 -0.35042 86 ft 4 kts 52°
2026-05-06 17:44 53.58194 -0.35070 89 ft 1 kts 22°
2026-05-06 17:44 53.58194 -0.35071 89 ft 0 kts 22°
2026-05-06 17:47 53.58210 -0.35052 88 ft 6 kts 40°
2026-05-06 17:48 53.58209 -0.34973 84 ft 9 kts 119°
2026-05-06 17:48 53.58165 -0.34885 83 ft 11 kts 135°
2026-05-06 17:48 53.58101 -0.34799 87 ft 13 kts 143°
2026-05-06 17:48 53.58015 -0.34716 84 ft 15 kts 167°
2026-05-06 17:49 53.57909 -0.34754 89 ft 16 kts 202°
2026-05-06 17:49 53.57805 -0.34828 92 ft 17 kts 202°
2026-05-06 17:49 53.57695 -0.34902 96 ft 17 kts 202°
2026-05-06 17:49 53.57578 -0.34981 97 ft 20 kts 202°
2026-05-06 17:50 53.57440 -0.35079 99 ft 23 kts 200°
2026-05-06 17:50 53.57285 -0.35185 103 ft 24 kts 202°
2026-05-06 17:50 53.57132 -0.35294 107 ft 24 kts 204°
2026-05-06 17:50 53.56985 -0.35397 113 ft 22 kts 201°
2026-05-06 17:51 53.56844 -0.35488 117 ft 21 kts 201°
2026-05-06 17:51 53.56713 -0.35581 122 ft 20 kts 202°
2026-05-06 17:51 53.56601 -0.35660 127 ft 12 kts 209°
2026-05-06 17:51 53.56556 -0.35730 126 ft 8 kts 175°
2026-05-06 17:52 53.56556 -0.35678 126 ft 4 kts 15°
2026-05-06 17:52 53.56582 -0.35669 127 ft 0 kts 19°
2026-05-06 17:52 53.56600 -0.35657 123 ft 9 kts 21°
2026-05-06 17:52 53.56761 -0.35547 120 ft 41 kts 22°
2026-05-06 17:53 53.57264 -0.35198 104 ft 120 kts 23°
2026-05-06 17:53 53.58221 -0.34577 476 ft 162 kts 25°
2026-05-06 17:53 53.59322 -0.33763 1409 ft 187 kts 26°
2026-05-06 17:53 53.60572 -0.32847 2463 ft 210 kts 25°
2026-05-06 17:54 53.61944 -0.31558 3333 ft 242 kts 46°
2026-05-06 17:54 53.62938 -0.29113 4434 ft 266 kts 62°
2026-05-06 17:54 53.63527 -0.26054 5596 ft 286 kts 86°
2026-05-06 17:54 53.63138 -0.22771 6864 ft 286 kts 116°
2026-05-06 17:55 53.61886 -0.20319 7547 ft 275 kts 150°
2026-05-06 17:55 53.60171 -0.18871 8262 ft 278 kts 156°
2026-05-06 17:55 53.58392 -0.17503 8904 ft 285 kts 156°
2026-05-06 17:55 53.56569 -0.16090 9574 ft 292 kts 156°
2026-05-06 17:56 53.54704 -0.14645 10243 ft 300 kts 156°
2026-05-06 17:56 53.52724 -0.13142 10486 ft 323 kts 157°
2026-05-06 17:56 53.50590 -0.11620 10755 ft 343 kts 159°
2026-05-06 17:56 53.48349 -0.10089 11323 ft 351 kts 159°
2026-05-06 17:57 53.46072 -0.08533 12073 ft 355 kts 159°
2026-05-06 17:57 53.43814 -0.06873 12919 ft 358 kts 152°
2026-05-06 17:57 53.41966 -0.04071 13655 ft 363 kts 125°
2026-05-06 17:57 53.40729 -0.00357 14447 ft 366 kts 117°
2026-05-06 17:58 53.39508 0.03422 15227 ft 370 kts 118°
2026-05-06 17:58 53.38290 0.07251 15993 ft 374 kts 117°
2026-05-06 17:58 53.37096 0.11155 16744 ft 379 kts 117°
2026-05-06 17:58 53.35908 0.15123 17493 ft 384 kts 116°
2026-05-06 17:59 53.34728 0.19094 18207 ft 388 kts 116°
2026-05-06 17:59 53.33521 0.23162 18851 ft 393 kts 116°
2026-05-06 17:59 53.32281 0.27350 19086 ft 409 kts 116°
2026-05-06 17:59 53.31007 0.31662 19499 ft 417 kts 116°
2026-05-06 18:00 53.29709 0.36036 20007 ft 422 kts 117°
2026-05-06 18:00 53.28401 0.40447 20573 ft 425 kts 117°
2026-05-06 18:00 53.27082 0.44889 21112 ft 428 kts 117°
2026-05-06 18:00 53.25752 0.49362 21614 ft 432 kts 117°
2026-05-06 18:01 53.24413 0.53868 21758 ft 429 kts 116°
2026-05-06 18:01 53.23310 0.58414 21215 ft 416 kts 108°
2026-05-06 18:01 53.22443 0.62899 21534 ft 406 kts 108°
2026-05-06 18:01 53.21524 0.67410 21847 ft 416 kts 109°
2026-05-06 18:02 53.20539 0.72014 22149 ft 425 kts 110°
2026-05-06 18:02 53.19523 0.76672 22615 ft 430 kts 110°
2026-05-06 18:02 53.18489 0.81366 23149 ft 433 kts 110°
2026-05-06 18:02 53.17443 0.86099 23712 ft 437 kts 111°
2026-05-06 18:03 53.16387 0.90860 24200 ft 440 kts 111°
2026-05-06 18:03 53.15677 0.94048 24464 ft 444 kts 111°
2026-05-06 18:03 53.14594 0.98909 24836 ft 451 kts 111°
2026-05-06 18:03 53.13497 1.03823 25249 ft 455 kts 111°
2026-05-06 18:04 53.12383 1.08803 25633 ft 460 kts 111°
2026-05-06 18:04 53.11262 1.13809 25998 ft 465 kts 111°
2026-05-06 18:04 53.10124 1.18877 26340 ft 469 kts 111°
2026-05-06 18:04 53.08977 1.23973 26729 ft 471 kts 111°
2026-05-06 18:05 53.07823 1.29087 27104 ft 473 kts 112°
2026-05-06 18:05 53.06661 1.34228 27437 ft 476 kts 112°
2026-05-06 18:05 53.05493 1.39382 27765 ft 478 kts 112°
2026-05-06 18:05 53.04313 1.44571 28067 ft 480 kts 112°
2026-05-06 18:06 53.03130 1.49765 28371 ft 482 kts 112°
2026-05-06 18:06 53.01939 1.54984 28640 ft 484 kts 112°
2026-05-06 18:06 53.00740 1.60226 28908 ft 486 kts 112°
2026-05-06 18:06 52.99541 1.65458 28998 ft 483 kts 112°
2026-05-06 18:07 52.97135 1.75904 29008 ft 486 kts 112°
2026-05-06 18:07 52.94724 1.86357 29002 ft 486 kts 112°
2026-05-06 18:08 52.92437 1.96891 29003 ft 485 kts 109°
2026-05-06 18:08 52.90429 2.07527 28996 ft 484 kts 109°
2026-05-06 18:09 52.88351 2.18149 29001 ft 485 kts 109°
2026-05-06 18:09 52.86261 2.28682 28934 ft 475 kts 109°
2026-05-06 18:10 52.85216 2.33921 27786 ft 479 kts 109°
2026-05-06 18:10 52.84174 2.39133 26549 ft 476 kts 109°
2026-05-06 18:10 52.83135 2.44315 25249 ft 474 kts 109°
2026-05-06 18:10 52.82095 2.49487 24120 ft 471 kts 109°
2026-05-06 18:11 52.81084 2.54501 24009 ft 443 kts 109°
2026-05-06 18:11 52.80127 2.59235 23823 ft 435 kts 110°
2026-05-06 18:11 52.79177 2.63916 23604 ft 424 kts 110°
2026-05-06 18:11 52.78263 2.68413 23425 ft 415 kts 110°
2026-05-06 18:12 52.77343 2.72923 23230 ft 413 kts 110°
2026-05-06 18:12 52.76426 2.77405 23027 ft 412 kts 110°
2026-05-06 18:12 52.75621 2.81945 22643 ft 411 kts 105°
2026-05-06 18:12 52.74983 2.86524 22230 ft 409 kts 103°
2026-05-06 18:13 52.74386 2.91108 21699 ft 406 kts 103°
2026-05-06 18:13 52.73789 2.95650 21211 ft 403 kts 103°
2026-05-06 18:13 52.73042 3.00069 20694 ft 397 kts 115°
2026-05-06 18:13 52.71787 3.04093 20204 ft 394 kts 121°
2026-05-06 18:14 52.70383 3.07963 19645 ft 391 kts 123°
2026-05-06 18:14 52.68988 3.11788 19128 ft 388 kts 122°
2026-05-06 18:14 52.67622 3.15598 18621 ft 385 kts 122°
2026-05-06 18:14 52.66279 3.19395 18085 ft 383 kts 121°
2026-05-06 18:15 52.64950 3.23163 17611 ft 378 kts 122°
2026-05-06 18:15 52.63631 3.26901 17089 ft 377 kts 121°
2026-05-06 18:15 52.62319 3.30622 16596 ft 374 kts 121°
2026-05-06 18:15 52.61030 3.34281 16107 ft 373 kts 122°
2026-05-06 18:16 52.59734 3.37962 15614 ft 371 kts 121°
2026-05-06 18:16 52.58513 3.41665 15121 ft 369 kts 112°
2026-05-06 18:16 52.57842 3.45716 14654 ft 366 kts 100°
2026-05-06 18:16 52.57476 3.49844 14135 ft 364 kts 97°
2026-05-06 18:17 52.57134 3.53866 13667 ft 359 kts 98°
2026-05-06 18:17 52.56750 3.57896 13204 ft 354 kts 99°
2026-05-06 18:17 52.56339 3.61873 12727 ft 351 kts 99°
2026-05-06 18:17 52.55919 3.65816 12265 ft 348 kts 99°
2026-05-06 18:18 52.55499 3.69714 11809 ft 345 kts 99°
2026-05-06 18:18 52.55081 3.73573 11353 ft 341 kts 99°
2026-05-06 18:18 52.54667 3.77391 10929 ft 337 kts 99°
2026-05-06 18:18 52.54258 3.81140 10597 ft 328 kts 99°
2026-05-06 18:19 52.53863 3.84749 10362 ft 314 kts 99°
2026-05-06 18:19 52.53482 3.88212 10149 ft 302 kts 99°
2026-05-06 18:19 52.53115 3.91564 9899 ft 294 kts 99°
2026-05-06 18:19 52.52749 3.94809 9889 ft 285 kts 103°
2026-05-06 18:20 52.51952 3.97804 9746 ft 293 kts 125°
2026-05-06 18:20 52.50628 4.00375 9336 ft 295 kts 134°
2026-05-06 18:20 52.49208 4.02721 8936 ft 292 kts 134°
2026-05-06 18:20 52.47787 4.05087 8566 ft 288 kts 133°
2026-05-06 18:21 52.46412 4.07432 8219 ft 283 kts 133°
2026-05-06 18:21 52.45066 4.09762 7867 ft 280 kts 131°
2026-05-06 18:21 52.43737 4.12075 7520 ft 277 kts 131°
2026-05-06 18:21 52.42421 4.14374 7180 ft 276 kts 131°
2026-05-06 18:22 52.41112 4.16655 6845 ft 274 kts 131°
2026-05-06 18:22 52.39814 4.18911 6567 ft 271 kts 131°
2026-05-06 18:22 52.38524 4.21157 6318 ft 270 kts 130°
2026-05-06 18:22 52.37248 4.23373 6309 ft 265 kts 131°
2026-05-06 18:23 52.35983 4.25601 6350 ft 272 kts 130°
2026-05-06 18:23 52.34687 4.27875 6026 ft 276 kts 131°
2026-05-06 18:23 52.33377 4.30151 5703 ft 272 kts 131°
2026-05-06 18:23 52.32105 4.32351 5435 ft 268 kts 130°
2026-05-06 18:24 52.30833 4.34552 5170 ft 266 kts 130°
2026-05-06 18:24 52.29563 4.36762 4888 ft 266 kts 130°
2026-05-06 18:24 52.28462 4.38680 4650 ft 265 kts 131°
2026-05-06 18:24 52.27202 4.40860 4375 ft 263 kts 130°
2026-05-06 18:25 52.25953 4.43037 4108 ft 262 kts 130°
2026-05-06 18:25 52.24707 4.45209 3851 ft 261 kts 130°
2026-05-06 18:25 52.23463 4.47364 3575 ft 260 kts 130°
2026-05-06 18:25 52.22258 4.49554 3234 ft 257 kts 121°
2026-05-06 18:26 52.21643 4.52200 2961 ft 247 kts 95°
2026-05-06 18:26 52.21637 4.54909 2721 ft 235 kts 75°
2026-05-06 18:26 52.22431 4.57225 2295 ft 234 kts 50°
2026-05-06 18:26 52.23427 4.59274 2056 ft 228 kts 55°
2026-05-06 18:27 52.24199 4.61478 1772 ft 218 kts 60°
2026-05-06 18:27 52.24957 4.63492 1475 ft 200 kts 54°
2026-05-06 18:27 52.25677 4.65244 1244 ft 181 kts 56°
2026-05-06 18:27 52.26301 4.66926 995 ft 168 kts 57°
2026-05-06 18:28 52.26913 4.68518 768 ft 166 kts 56°
2026-05-06 18:28 52.27508 4.70049 557 ft 151 kts 56°
2026-05-06 18:28 52.28032 4.71418 386 ft 131 kts 56°
2026-05-06 18:28 52.28518 4.72682 203 ft 134 kts 57°
2026-05-06 18:29 52.29018 4.73980 21 ft 135 kts 56°
2026-05-06 18:29 52.29451 4.75127 -4 ft 101 kts 57°
2026-05-06 18:29 52.29734 4.75864 -4 ft 59 kts 58°
2026-05-06 18:29 52.29922 4.76355 -5 ft 44 kts 58°
2026-05-06 18:30 52.30093 4.76596 -3 ft 24 kts 27°
2026-05-06 18:30 52.30202 4.76687 -2 ft 12 kts 26°
2026-05-06 18:30 52.30247 4.76726 -2 ft 4 kts 26°
2026-05-06 18:30 52.30278 4.76740 -2 ft 6 kts
2026-05-06 18:31 52.30324 4.76724 -2 ft 9 kts 334°
2026-05-06 18:31 52.30337 4.76633 -2 ft 10 kts 247°
2026-05-06 18:31 52.30296 4.76526 -2 ft 13 kts 237°
2026-05-06 18:31 52.30245 4.76394 -2 ft 15 kts 238°
2026-05-06 18:32 52.30217 4.76250 -2 ft 12 kts 302°
2026-05-06 18:32 52.30283 4.76177 -2 ft 11 kts 328°
2026-05-06 18:32 52.30327 4.76134 -2 ft 5 kts 333°
2026-05-06 18:32 52.30349 4.76152 -2 ft 4 kts 47°
2026-05-06 18:33 52.30362 4.76183 1 ft 0 kts 56°